[[{"header":{"parameterUnit":"m.s-1","parameterCategory":2,"la1":30.2991,"la2":30.254,"lo1":-89.0895,"lo2":-89.0444,"dy":0.0017,"dx":0.0017,"nx":28,"ny":28,"refTime":"2023-08-16T21:00:00:Z","depth":"0","parameterNumber":2,"parameterNumberName":"U-component_of_CURRENTS"},"data":[0,0,0,0,0,0,0,0,0,0,0,0,0,0,0,0,0,0,0,0,0,0,0,0,0,0,0,0,0,0,0,0,0,0,0,0,0,0,0,0,0,0,0,0,0,0,0,0,0,0,0,0,0,0,0,0,0,0,-0.3296,-0.3296,0,-0.3276,-0.3276,-0.3275,-0.324,-0.3239,-0.3239,-0.3238,-0.3197,-0.3197,-0.3196,0,0,0,0,0,0,0,0,0,0,0,0,0,-0.3152,-0.3156,-0.3296,-0.3296,-0.3296,-0.3276,-0.3276,-0.3275,-0.324,-0.3239,-0.3239,-0.3238,-0.3198,-0.3197,-0.3196,0,0,0,0,0,0,0,0,0,0,0,0,0,-0.318,-0.3157,-0.3296,-0.3277,-0.3275,-0.3276,-0.3276,-0.3275,-0.324,-0.3239,-0.3239,-0.3238,-0.3198,-0.3197,-0.3196,-0.3205,0,0,-0.3193,-0.3193,0,0,0,0,0,0,0,0,-0.3179,-0.3185,-0.328,-0.3279,-0.3277,-0.3261,-0.321,-0.3251,-0.324,-0.3251,-0.3238,-0.3237,-0.3219,-0.3216,-0.3211,-0.3203,-0.3202,-0.3193,-0.3193,-0.3192,-0.3192,0,0,0,0,0,0,0,-0.3177,-0.3185,-0.3286,-0.328,-0.3278,-0.3218,-0.3222,-0.3217,-0.3238,-0.325,-0.3248,-0.3249,-0.3217,-0.3213,-0.321,-0.3201,-0.3193,-0.3192,-0.3192,-0.3191,-0.3207,-0.3208,0,0,0,0,0,0,-0.3193,-0.3185,-0.3287,-0.3286,-0.3227,-0.3222,-0.3226,-0.3265,-0.3238,-0.3234,-0.325,-0.3248,-0.3214,-0.3211,-0.3209,-0.3235,-0.3192,-0.3191,-0.3191,-0.3206,-0.3207,-0.3208,0,0,0,0,0,0,-0.3191,-0.3204,-0.3288,-0.3233,-0.324,-0.3227,-0.3269,-0.3265,-0.3267,-0.3238,-0.3233,-0.3256,-0.3214,-0.321,-0.3211,-0.3232,-0.3191,-0.319,-0.3205,-0.3206,-0.3208,-0.3276,0,0,0,0,0,0,-0.3187,-0.3204,-0.3243,-0.3236,-0.3244,-0.3301,-0.327,-0.3266,-0.3269,-0.3266,-0.3242,-0.3237,-0.3213,-0.3212,-0.321,-0.323,-0.3189,-0.3204,-0.3206,-0.3207,-0.3272,-0.3279,-0.3285,0,0,0,0,0,-0.3183,-0.3242,-0.3246,-0.3258,-0.3298,-0.3302,-0.3301,-0.3284,-0.3271,-0.3281,-0.326,-0.3238,-0.3222,-0.3213,-0.3209,-0.323,-0.3203,-0.3205,-0.3207,-0.3269,-0.3278,-0.3285,0,0,0,0,0,0,-0.3208,-0.3244,-0.3248,-0.3319,-0.3316,-0.3297,-0.3306,-0.3295,-0.3287,-0.3287,-0.3251,-0.3245,-0.3254,-0.3235,-0.3225,-0.3239,-0.3209,-0.3211,-0.3257,-0.3265,-0.3272,-0.3274,-0.3189,0,0,0,0,0,-0.3233,-0.3286,-0.3292,-0.3348,-0.3345,-0.3327,-0.3329,-0.3323,-0.3311,-0.3307,-0.3287,-0.327,-0.3261,-0.3257,-0.3246,-0.3257,-0.3217,-0.3268,-0.3274,-0.328,-0.328,-0.3248,-0.3251,-0.3215,-0.3215,-0.3215,0,0,-0.3261,-0.3286,-0.3318,-0.3355,-0.3346,-0.3368,-0.3326,-0.334,-0.3355,-0.3305,-0.3317,-0.3295,-0.3269,-0.3278,-0.328,-0.3264,-0.3267,-0.3283,-0.3288,-0.3285,-0.325,-0.3254,-0.3257,-0.3217,-0.3217,-0.3216,0,0,-0.3333,-0.3358,-0.3418,-0.3418,-0.3423,-0.3407,-0.3416,-0.3405,-0.3391,-0.3404,-0.3368,-0.3357,-0.3348,-0.3328,-0.3318,-0.3356,-0.3303,-0.3356,-0.3392,-0.3361,-0.3363,-0.3365,-0.3305,-0.3301,-0.3359,-0.3359,-0.3359,0,-0.3363,-0.3444,-0.343,-0.3472,-0.3473,-0.3431,-0.3468,-0.3455,-0.3448,-0.3431,-0.342,-0.3389,-0.3372,-0.3365,-0.3379,-0.3371,-0.3333,-0.3364,-0.3369,-0.337,-0.337,-0.3309,-0.3303,-0.3363,-0.3363,-0.3362,-0.3362,0,-0.3467,-0.3524,-0.3546,-0.3589,-0.3586,-0.3608,-0.3579,-0.357,-0.3543,-0.3524,-0.3505,-0.3473,-0.3449,-0.3447,-0.3428,-0.3425,-0.3389,-0.3381,-0.3348,-0.3378,-0.3311,-0.3304,-0.3368,-0.3367,-0.3366,-0.3365,0,0,-0.3542,-0.3612,-0.3619,-0.3641,-0.3643,-0.3646,-0.3652,-0.3633,-0.3618,-0.3604,-0.3577,-0.3571,-0.3532,-0.3518,-0.3485,-0.3462,-0.3434,-0.343,-0.3427,-0.3368,-0.3341,-0.3247,-0.323,-0.3427,-0.3427,-0.3426,-0.3288,0,-0.3619,-0.3729,-0.3729,-0.3789,-0.3823,-0.3765,-0.376,-0.3733,-0.3691,-0.3652,-0.3601,-0.3577,-0.3565,-0.3546,-0.3525,-0.3449,-0.3421,-0.347,-0.3323,-0.3318,-0.3229,-0.3221,-0.3029,-0.2884,-0.3281,-0.3279,-0.3278,0,-0.3712,-0.3765,-0.3858,-0.3867,-0.3868,-0.3884,-0.3828,-0.3824,-0.3751,-0.3714,-0.3676,-0.3625,-0.358,-0.3566,-0.3465,-0.3495,-0.3433,-0.3376,-0.3369,-0.3252,-0.3211,-0.2921,-0.2855,-0.2773,-0.3267,-0.3268,-0.3269,0,-0.3761,-0.3838,-0.391,-0.392,-0.3932,-0.3925,-0.3907,-0.3845,-0.38,-0.375,-0.3706,-0.3654,-0.3598,-0.3535,-0.3422,-0.3444,-0.3286,-0.3299,-0.3152,-0.3143,-0.2935,-0.2908,-0.2768,-0.3237,-0.3237,-0.3237,-0.3238,0,-0.3844,-0.3884,-0.3936,-0.3971,-0.3971,-0.3973,-0.394,-0.3904,-0.384,-0.3745,-0.3743,-0.3653,-0.359,-0.3482,-0.3409,-0.3236,-0.3275,-0.3143,-0.3102,-0.2952,-0.293,-0.2814,-0.2855,-0.3232,-0.3233,-0.3234,-0.3235,0,-0.3874,-0.3942,-0.3977,-0.4002,-0.4001,-0.3986,-0.3931,-0.3866,-0.3863,-0.3735,-0.3715,-0.3637,-0.3484,-0.3395,-0.3252,-0.3191,-0.2975,-0.2996,-0.2809,-0.275,-0.2552,-0.2606,-0.247,-0.2413,-0.2809,-0.2805,-0.2803,0,-0.3894,-0.3936,-0.396,-0.3929,-0.3931,-0.3917,-0.3847,-0.3851,-0.3763,-0.3681,-0.3578,-0.3473,-0.3276,-0.3067,-0.2941,-0.2772,-0.2796,-0.2558,-0.2583,-0.2498,-0.2527,-0.2588,-0.2557,-0.232,-0.2314,-0.2309,-0.2305,0,-0.3842,-0.3851,-0.3848,-0.3807,-0.3755,-0.3703,-0.3633,-0.3574,-0.3511,-0.344,-0.3263,-0.3136,-0.2941,-0.2668,-0.2524,-0.2427,-0.2465,-0.2447,-0.2395,-0.2164,-0.2181,-0.2118,-0.2457,-0.2258,-0.2263,-0.2266,-0.2269,-0.227,-0.3699,-0.3659,-0.3629,-0.3552,-0.3501,-0.3377,-0.325,-0.3195,-0.3051,-0.2835,-0.2887,-0.2633,-0.2463,-0.2207,-0.2119,-0.1916,-0.2103,-0.1852,-0.1928,-0.2001,-0.1936,-0.2172,-0.1921,-0.1924,-0.1926,-0.1928,-0.193,0,-0.3414,-0.3385,-0.3342,-0.3215,-0.3048,-0.3127,-0.2967,-0.2793,-0.2539,-0.2471,-0.2305,-0.204,-0.1787,-0.169,-0.1508,-0.1415,-0.1419,-0.1398,-0.1419,-0.1419,-0.1602,-0.1568,-0.1183,-0.1183,-0.1184,-0.1184,-0.1184,-0.1184,-0.3233,-0.3081,-0.3064,-0.2724,-0.2654,-0.2342,-0.2194,-0.2053,-0.1941,-0.1672,-0.1534,-0.149,-0.1431,-0.1371,-0.1178,-0.1114,-0.1117,-0.1068,-0.1189,-0.1287,-0.1336,-0.1382,-0.1353,-0.093,-0.093,-0.0885,-0.0885,-0.0885]},{"header":{"parameterUnit":"m.s-1","parameterCategory":2,"la1":30.2991,"la2":30.254,"lo1":-89.0895,"lo2":-89.0444,"dy":0.0017,"dx":0.0017,"nx":28,"ny":28,"refTime":"2023-08-16T21:00:00:Z","depth":"0","parameterNumber":3,"parameterNumberName":"V-component_of_CURRENTS"},"data":[0,0,0,0,0,0,0,0,0,0,0,0,0,0,0,0,0,0,0,0,0,0,0,0,0,0,0,0,0,0,0,0,0,0,0,0,0,0,0,0,0,0,0,0,0,0,0,0,0,0,0,0,0,0,0,0,0,0,-0.0502,-0.0501,0,-0.0311,-0.0309,-0.0306,-0.0224,-0.0224,-0.0225,-0.0225,-0.0039,-0.0034,-0.0028,0,0,0,0,0,0,0,0,0,0,0,0,0,-0.0652,-0.065,-0.0503,-0.0501,-0.0498,-0.0312,-0.0309,-0.0306,-0.0224,-0.0224,-0.0225,-0.0226,-0.0041,-0.0035,-0.0028,0,0,0,0,0,0,0,0,0,0,0,0,0,-0.0534,-0.065,-0.0503,-0.0437,-0.0429,-0.0312,-0.0309,-0.0305,-0.0224,-0.0224,-0.0225,-0.0226,-0.0043,-0.0035,-0.0027,0.0041,0,0,-0.0002,0.0002,0,0,0,0,0,0,0,0,-0.0541,-0.0529,-0.0449,-0.0441,-0.0433,-0.0295,-0.0293,-0.0191,-0.0223,-0.0299,-0.0225,-0.0226,-0.0126,-0.0111,-0.0069,0.0049,0.0057,-0.0001,0.0004,0.0007,0.001,0,0,0,0,0,0,0,-0.055,-0.0535,-0.0424,-0.0447,-0.0437,-0.0367,-0.0353,-0.0272,-0.0208,-0.0292,-0.0286,-0.0269,-0.0122,-0.0077,-0.0065,0.006,-0.0001,0.0006,0.0011,0.0014,0.0234,0.0235,0,0,0,0,0,0,-0.0585,-0.0544,-0.043,-0.0419,-0.0493,-0.0365,-0.0348,-0.0336,-0.0209,-0.0191,-0.0269,-0.0266,-0.0091,-0.0074,-0.0058,0.0024,0.0007,0.0015,0.002,0.0233,0.0234,0.0235,0,0,0,0,0,0,-0.0589,-0.0577,-0.0438,-0.0479,-0.0457,-0.0363,-0.0349,-0.0332,-0.0287,-0.0191,-0.0173,-0.0243,-0.0091,-0.0069,0.0004,0.0031,0.0019,0.0026,0.0232,0.0233,0.0235,0.019,0,0,0,0,0,0,-0.0594,-0.058,-0.0578,-0.0482,-0.0456,-0.037,-0.0347,-0.0327,-0.0277,-0.0271,-0.0163,-0.0146,-0.009,-0.0009,0.0012,0.0042,0.0033,0.0231,0.0233,0.0234,0.019,0.019,0.0189,0,0,0,0,0,-0.06,-0.059,-0.0579,-0.0565,-0.0458,-0.0369,-0.0349,-0.0282,-0.0275,-0.0248,-0.0189,-0.015,0.0016,-0.0002,0.0023,0.0056,0.023,0.0232,0.0234,0.0191,0.019,0.0189,0,0,0,0,0,0,-0.0655,-0.0578,-0.0564,-0.0533,-0.0462,-0.0357,-0.0323,-0.0284,-0.0212,-0.0212,-0.0134,-0.0112,-0.0038,0.0014,-0.0009,0.0123,0.013,0.0136,0.0088,0.0088,0.0088,0.0065,0.0039,0,0,0,0,0,-0.0669,-0.0641,-0.056,-0.0535,-0.0504,-0.0417,-0.0374,-0.033,-0.0256,-0.0224,-0.0152,-0.0078,-0.0006,0.0039,0.0111,0.0188,0.0206,0.0225,0.0224,0.0223,0.022,0.0272,0.0275,0.0242,0.0242,0.0242,0,0,-0.0688,-0.0639,-0.0627,-0.0544,-0.0485,-0.043,-0.0392,-0.0327,-0.028,-0.0215,-0.0136,-0.0076,0.0012,0.0092,0.0131,0.0137,0.0236,0.0226,0.0224,0.0222,0.0274,0.0277,0.028,0.0243,0.0243,0.0243,0,0,-0.0698,-0.0665,-0.0642,-0.0583,-0.0499,-0.044,-0.0428,-0.0326,-0.0282,-0.0201,-0.015,-0.0083,0.0039,0.0105,0.0153,0.0195,0.0226,0.0221,0.021,0.026,0.0263,0.0266,0.0257,0.026,0.0226,0.0226,0.0226,0,-0.0732,-0.0691,-0.062,-0.0574,-0.0535,-0.0452,-0.0418,-0.0345,-0.0235,-0.0204,-0.0186,-0.0025,0.0048,0.0141,0.0155,0.0195,0.0203,0.0203,0.0257,0.0261,0.0264,0.0255,0.0259,0.0224,0.0224,0.0224,0.0224,0,-0.0712,-0.0684,-0.0662,-0.0586,-0.0525,-0.0484,-0.0386,-0.033,-0.0277,-0.0212,-0.012,-0.0022,0.0065,0.0109,0.0151,0.022,0.0208,0.0243,0.0251,0.0264,0.0254,0.0258,0.0221,0.0222,0.0222,0.0223,0,0,-0.0807,-0.0681,-0.0682,-0.0657,-0.0538,-0.0494,-0.0412,-0.0327,-0.0292,-0.0185,-0.0135,-0.0001,0.0034,0.009,0.0156,0.0211,0.0239,0.0233,0.0236,0.0209,0.0301,0.0231,0.0228,0.028,0.0282,0.0283,0.027,0,-0.0834,-0.0785,-0.0693,-0.0649,-0.0627,-0.0517,-0.0449,-0.0356,-0.0277,-0.0203,-0.0099,-0.0024,0.0035,0.0068,0.0136,0.0221,0.0253,0.0236,0.0306,0.0307,0.0233,0.0233,0.031,0.0301,0.0274,0.0274,0.0275,0,-0.0871,-0.0832,-0.08,-0.0707,-0.0684,-0.063,-0.0538,-0.0461,-0.033,-0.0269,-0.0177,-0.0094,0.0011,0.0053,0.0187,0.0169,0.0223,0.0282,0.0284,0.024,0.0247,0.0294,0.031,0.0469,0.0281,0.0281,0.028,0,-0.1014,-0.0921,-0.0909,-0.0874,-0.0739,-0.0703,-0.0633,-0.0502,-0.0441,-0.0322,-0.0279,-0.0144,-0.0085,0.0026,0.0136,0.0168,0.0251,0.0316,0.0294,0.0287,0.0378,0.0377,0.0548,0.039,0.039,0.039,0.039,0,-0.1105,-0.1096,-0.0978,-0.0971,-0.0941,-0.0815,-0.0769,-0.0672,-0.0548,-0.0483,-0.0338,-0.0282,-0.0087,-0.0008,0.01,0.0179,0.0217,0.0279,0.0288,0.0359,0.0356,0.0518,0.0583,0.039,0.039,0.039,0.039,0,-0.1255,-0.1181,-0.1155,-0.1041,-0.1005,-0.0987,-0.085,-0.0794,-0.0688,-0.06,-0.0566,-0.0392,-0.0301,-0.0154,0.0005,0.0109,0.0287,0.0216,0.0244,0.0257,0.0404,0.0462,0.0565,0.0639,0.0221,0.0219,0.0218,0,-0.1318,-0.1326,-0.1232,-0.1194,-0.1135,-0.1083,-0.1015,-0.0884,-0.0809,-0.0673,-0.0626,-0.0535,-0.0461,-0.0294,-0.0094,0.0047,0.0188,0.0196,0.0292,0.0407,0.0482,0.0513,0.0572,0.0389,0.0389,0.0389,0.0389,0,-0.1425,-0.1393,-0.1356,-0.1289,-0.1222,-0.1152,-0.1055,-0.103,-0.0869,-0.0814,-0.0734,-0.069,-0.0524,-0.0311,-0.0141,-0.003,0.0324,0.0198,0.0364,0.065,0.0656,0.0732,0.0353,0.039,0.039,0.039,0.039,0.039,-0.1482,-0.1477,-0.1408,-0.1317,-0.1261,-0.1173,-0.1123,-0.1043,-0.0973,-0.0821,-0.0828,-0.065,-0.039,-0.013,-0.0027,0.0324,0.0286,0.0493,0.0555,0.0572,0.0656,0.0215,0.0229,0.0228,0.0227,0.0227,0.0226,0,-0.148,-0.1443,-0.1406,-0.1291,-0.1208,-0.1172,-0.1078,-0.1005,-0.0942,-0.0779,-0.0727,-0.0338,-0.0095,0.0206,0.0593,0.0745,0.082,0.0821,0.0975,0.102,0.07,0.0724,0.079,0.079,0.079,0.079,0.079,0.079,-0.1463,-0.14,-0.1345,-0.1195,-0.1136,-0.1014,-0.0953,-0.0899,-0.0753,-0.0461,-0.0144,0.0017,0.0373,0.0825,0.1167,0.1184,0.1359,0.1291,0.1344,0.1233,0.1211,0.119,0.1233,0.1406,0.1407,0.1709,0.1712,0.1714]}],[{"header":{"parameterUnit":"m.s-1","parameterCategory":2,"la1":30.2991,"la2":30.254,"lo1":-89.0895,"lo2":-89.0444,"dy":0.0017,"dx":0.0017,"nx":28,"ny":28,"refTime":"2023-08-16T21:00:00:Z","depth":"2","parameterNumber":2,"parameterNumberName":"U-component_of_CURRENTS"},"data":[0,0,0,0,0,0,0,0,0,0,0,0,0,0,0,0,0,0,0,0,0,0,0,0,0,0,0,0,0,0,0,0,0,0,0,0,0,0,0,0,0,0,0,0,0,0,0,0,0,0,0,0,0,0,0,0,0,0,-0.2827,-0.2828,0,-0.2888,-0.2889,-0.2889,-0.2901,-0.2901,-0.2901,-0.2901,-0.2974,-0.2976,-0.2978,0,0,0,0,0,0,0,0,0,0,0,0,0,-0.2657,-0.266,-0.2827,-0.2828,-0.2829,-0.2888,-0.2889,-0.2889,-0.2901,-0.2901,-0.2901,-0.2901,-0.2974,-0.2976,-0.2979,0,0,0,0,0,0,0,0,0,0,0,0,0,-0.2723,-0.2661,-0.2827,-0.2845,-0.2848,-0.2888,-0.2889,-0.2889,-0.2901,-0.2901,-0.2901,-0.29,-0.2973,-0.2976,-0.2979,-0.3003,0,0,-0.2989,-0.299,0,0,0,0,0,0,0,0,-0.2719,-0.2728,-0.2841,-0.2844,-0.2847,-0.289,-0.2856,-0.2929,-0.2901,-0.2877,-0.2901,-0.29,-0.295,-0.2955,-0.2961,-0.3006,-0.3009,-0.2989,-0.2991,-0.2992,-0.2993,0,0,0,0,0,0,0,-0.2715,-0.2726,-0.2848,-0.2843,-0.2846,-0.2829,-0.2838,-0.2869,-0.2911,-0.2879,-0.2881,-0.2894,-0.2951,-0.2958,-0.2963,-0.301,-0.2989,-0.2992,-0.2994,-0.2995,-0.3113,-0.3114,0,0,0,0,0,0,-0.2719,-0.2722,-0.2846,-0.285,-0.2785,-0.2832,-0.2843,-0.2873,-0.2911,-0.2917,-0.2894,-0.2894,-0.2953,-0.296,-0.2966,-0.3046,-0.2992,-0.2995,-0.2997,-0.3111,-0.3113,-0.3114,0,0,0,0,0,0,-0.2715,-0.273,-0.2843,-0.2788,-0.2802,-0.2837,-0.287,-0.2875,-0.2899,-0.2923,-0.2928,-0.2916,-0.2953,-0.2962,-0.301,-0.3047,-0.2996,-0.2999,-0.311,-0.3112,-0.3113,-0.3174,0,0,0,0,0,0,-0.271,-0.2729,-0.2778,-0.279,-0.2806,-0.2899,-0.2871,-0.2876,-0.2908,-0.2909,-0.2944,-0.2949,-0.2954,-0.3006,-0.3013,-0.305,-0.3002,-0.3108,-0.3111,-0.3113,-0.317,-0.3177,-0.3184,0,0,0,0,0,-0.2704,-0.278,-0.278,-0.2797,-0.2865,-0.2901,-0.2909,-0.2927,-0.291,-0.2942,-0.295,-0.2949,-0.3026,-0.301,-0.3018,-0.3057,-0.3107,-0.311,-0.3113,-0.3167,-0.3176,-0.3183,0,0,0,0,0,0,-0.2736,-0.2789,-0.2789,-0.2879,-0.2898,-0.2905,-0.2936,-0.2939,-0.2969,-0.2972,-0.297,-0.2978,-0.3033,-0.3036,-0.3017,-0.3095,-0.3064,-0.3069,-0.3103,-0.3111,-0.3118,-0.3119,-0.3004,0,0,0,0,0,-0.2764,-0.2846,-0.2854,-0.2935,-0.2924,-0.2926,-0.2949,-0.2965,-0.2981,-0.2994,-0.301,-0.3027,-0.3049,-0.3072,-0.3097,-0.3146,-0.3096,-0.3174,-0.318,-0.3186,-0.3192,-0.3151,-0.3154,-0.3123,-0.3123,-0.3123,0,0,-0.28,-0.2845,-0.289,-0.2949,-0.2944,-0.2985,-0.2938,-0.2982,-0.3031,-0.2999,-0.3063,-0.3058,-0.3067,-0.3119,-0.3143,-0.3128,-0.3161,-0.319,-0.3195,-0.3197,-0.3154,-0.3157,-0.3159,-0.3125,-0.3125,-0.3125,0,0,-0.2912,-0.2929,-0.3019,-0.3034,-0.3063,-0.3056,-0.307,-0.3079,-0.3084,-0.3149,-0.3121,-0.3131,-0.3191,-0.3185,-0.3192,-0.3251,-0.3197,-0.3265,-0.3306,-0.3267,-0.3269,-0.327,-0.3171,-0.3163,-0.327,-0.327,-0.327,0,-0.2948,-0.3035,-0.3049,-0.3117,-0.3107,-0.3087,-0.3119,-0.3153,-0.3196,-0.3173,-0.319,-0.3205,-0.3222,-0.3233,-0.3263,-0.3267,-0.3214,-0.3275,-0.3274,-0.3274,-0.3274,-0.3173,-0.3163,-0.3273,-0.3273,-0.3272,-0.3272,0,-0.3082,-0.3153,-0.3181,-0.3251,-0.3274,-0.3282,-0.3293,-0.3319,-0.3308,-0.3311,-0.3315,-0.3321,-0.3318,-0.3329,-0.333,-0.3333,-0.3282,-0.3284,-0.325,-0.3281,-0.3172,-0.316,-0.3278,-0.3277,-0.3276,-0.3275,0,0,-0.3096,-0.3239,-0.3227,-0.3216,-0.3301,-0.3269,-0.3382,-0.3366,-0.3323,-0.3415,-0.3357,-0.3436,-0.3399,-0.3403,-0.3382,-0.3361,-0.3317,-0.3339,-0.3335,-0.3233,-0.3182,-0.3044,-0.3017,-0.3321,-0.332,-0.332,-0.309,0,-0.3137,-0.3192,-0.3307,-0.3327,-0.3298,-0.3337,-0.3382,-0.3407,-0.3402,-0.3362,-0.3384,-0.3341,-0.3441,-0.3385,-0.3417,-0.3316,-0.3297,-0.3376,-0.3174,-0.3167,-0.3036,-0.3004,-0.2796,-0.2568,-0.3079,-0.3077,-0.3075,0,-0.3197,-0.318,-0.3201,-0.32,-0.3179,-0.325,-0.3157,-0.3205,-0.3232,-0.3227,-0.3278,-0.3273,-0.329,-0.3337,-0.3292,-0.3336,-0.3292,-0.3229,-0.3218,-0.3065,-0.3009,-0.2628,-0.2527,-0.3056,-0.3057,-0.3059,-0.306,0,-0.3002,-0.3092,-0.3046,-0.3052,-0.3098,-0.3117,-0.3119,-0.3152,-0.3089,-0.3126,-0.3067,-0.3148,-0.3093,-0.3134,-0.3139,-0.3185,-0.303,-0.3059,-0.2891,-0.2877,-0.2648,-0.2616,-0.3018,-0.3019,-0.3019,-0.302,-0.3021,0,-0.2917,-0.2877,-0.295,-0.2882,-0.2799,-0.2916,-0.2833,-0.2871,-0.287,-0.2779,-0.296,-0.2885,-0.3041,-0.3012,-0.3062,-0.294,-0.299,-0.2873,-0.2813,-0.2658,-0.2631,-0.3033,-0.3038,-0.3011,-0.3013,-0.3015,-0.3016,0,-0.2747,-0.2801,-0.2745,-0.2735,-0.2738,-0.2663,-0.2657,-0.2572,-0.2622,-0.2523,-0.2526,-0.2619,-0.2601,-0.272,-0.2695,-0.2743,-0.268,-0.263,-0.2421,-0.2342,-0.256,-0.2571,-0.2368,-0.2361,-0.2355,-0.235,-0.2346,0,-0.266,-0.2617,-0.2579,-0.2534,-0.2559,-0.2487,-0.2439,-0.2457,-0.239,-0.2346,-0.2267,-0.2248,-0.2246,-0.2185,-0.225,-0.2253,-0.2443,-0.2047,-0.2121,-0.2532,-0.2495,-0.2515,-0.2534,-0.1813,-0.1805,-0.1798,-0.1793,0,-0.246,-0.2489,-0.2406,-0.2316,-0.2275,-0.2184,-0.2135,-0.2024,-0.204,-0.1999,-0.1929,-0.191,-0.1857,-0.1784,-0.1801,-0.1804,-0.2049,-0.1906,-0.2353,-0.2035,-0.1998,-0.1967,-0.2004,-0.1735,-0.174,-0.1745,-0.1748,-0.175,-0.234,-0.2243,-0.2182,-0.2085,-0.2027,-0.192,-0.1811,-0.1795,-0.1682,-0.1625,-0.1637,-0.158,-0.1553,-0.1464,-0.1418,-0.1421,-0.1587,-0.1568,-0.1593,-0.1623,-0.1625,-0.1583,-0.1238,-0.124,-0.1243,-0.1245,-0.1247,0,-0.2161,-0.207,-0.1953,-0.1835,-0.1699,-0.1755,-0.1627,-0.1539,-0.1453,-0.1428,-0.1418,-0.119,-0.1087,-0.1094,-0.0984,-0.0975,-0.1031,-0.0947,-0.1025,-0.108,-0.113,-0.1115,-0.0587,-0.0585,-0.0584,-0.0583,0,0,-0.2065,-0.1892,-0.18,-0.1545,-0.1484,-0.1336,-0.1253,-0.1207,-0.1172,-0.1088,-0.1046,-0.1099,-0.1039,-0.0822,-0.0764,-0.066,-0.0883,-0.0622,-0.1141,-0.1287,-0.1336,-0.1459,-0.1492,0,0,0,0,0]},{"header":{"parameterUnit":"m.s-1","parameterCategory":2,"la1":30.2991,"la2":30.254,"lo1":-89.0895,"lo2":-89.0444,"dy":0.0017,"dx":0.0017,"nx":28,"ny":28,"refTime":"2023-08-16T21:00:00:Z","depth":"2","parameterNumber":3,"parameterNumberName":"V-component_of_CURRENTS"},"data":[0,0,0,0,0,0,0,0,0,0,0,0,0,0,0,0,0,0,0,0,0,0,0,0,0,0,0,0,0,0,0,0,0,0,0,0,0,0,0,0,0,0,0,0,0,0,0,0,0,0,0,0,0,0,0,0,0,0,-0.0434,-0.0432,0,-0.0265,-0.0263,-0.0261,-0.0182,-0.0183,-0.0183,-0.0183,0.0033,0.0039,0.0045,0,0,0,0,0,0,0,0,0,0,0,0,0,-0.0541,-0.054,-0.0434,-0.0432,-0.043,-0.0265,-0.0263,-0.026,-0.0182,-0.0183,-0.0183,-0.0183,0.0031,0.0038,0.0045,0,0,0,0,0,0,0,0,0,0,0,0,0,-0.0446,-0.054,-0.0434,-0.0371,-0.0364,-0.0266,-0.0263,-0.026,-0.0182,-0.0183,-0.0183,-0.0183,0.0029,0.0037,0.0046,0.0106,0,0,0.0073,0.0077,0,0,0,0,0,0,0,0,-0.0451,-0.0442,-0.0382,-0.0375,-0.0367,-0.0245,-0.0221,-0.0135,-0.0182,-0.0251,-0.0183,-0.0183,-0.0056,-0.004,-0.0008,0.0116,0.0125,0.0074,0.0079,0.0083,0.0086,0,0,0,0,0,0,0,-0.0458,-0.0448,-0.0366,-0.038,-0.0371,-0.0301,-0.0289,-0.0204,-0.0153,-0.0245,-0.0239,-0.0221,-0.0051,-0.0016,-0.0002,0.0129,0.0074,0.0082,0.0087,0.0091,0.0333,0.0334,0,0,0,0,0,0,-0.0487,-0.0455,-0.0372,-0.0361,-0.0411,-0.0299,-0.0286,-0.0284,-0.0154,-0.0135,-0.0221,-0.0218,-0.0031,-0.0012,0.0006,0.0104,0.0083,0.0091,0.0097,0.0332,0.0334,0.0335,0,0,0,0,0,0,-0.0491,-0.0482,-0.0378,-0.0403,-0.0385,-0.0299,-0.0296,-0.028,-0.0244,-0.0137,-0.0117,-0.0201,-0.0031,-0.0006,0.0078,0.0112,0.0095,0.0104,0.0331,0.0333,0.0334,0.0287,0,0,0,0,0,0,-0.0495,-0.0485,-0.0493,-0.0406,-0.0385,-0.0321,-0.0295,-0.0277,-0.0233,-0.0227,-0.0112,-0.0093,-0.0029,0.0064,0.0087,0.0124,0.011,0.033,0.0332,0.0334,0.0287,0.0287,0.0286,0,0,0,0,0,-0.0499,-0.0503,-0.0495,-0.0484,-0.04,-0.0321,-0.0303,-0.0241,-0.0232,-0.0211,-0.0141,-0.0096,0.0094,0.0072,0.0099,0.0139,0.0328,0.0331,0.0334,0.0287,0.0287,0.0287,0,0,0,0,0,0,-0.0557,-0.0493,-0.0482,-0.0469,-0.0405,-0.0308,-0.0283,-0.0245,-0.0173,-0.0169,-0.0081,-0.0055,0.0034,0.0089,0.0063,0.0214,0.0219,0.0227,0.0175,0.0176,0.0176,0.0156,0.0118,0,0,0,0,0,-0.0576,-0.056,-0.0488,-0.0477,-0.0451,-0.0372,-0.0334,-0.029,-0.0215,-0.0184,-0.0102,-0.0017,0.0067,0.0118,0.02,0.0284,0.0324,0.0327,0.0326,0.0326,0.0328,0.0412,0.0419,0.0343,0.0343,0.0343,0,0,-0.0602,-0.0558,-0.0554,-0.0487,-0.0436,-0.0377,-0.0349,-0.0292,-0.0237,-0.017,-0.0077,-0.0013,0.0087,0.0179,0.0224,0.0229,0.0365,0.0329,0.0328,0.033,0.0415,0.0423,0.0429,0.0345,0.0345,0.0344,0,0,-0.0607,-0.0602,-0.0575,-0.0524,-0.0446,-0.0389,-0.0378,-0.0282,-0.0239,-0.0148,-0.0089,-0.0016,0.0124,0.0196,0.0251,0.03,0.0357,0.0331,0.0324,0.0406,0.0412,0.0419,0.0455,0.0466,0.0335,0.0335,0.0335,0,-0.0642,-0.0583,-0.0555,-0.0503,-0.0444,-0.0398,-0.0334,-0.0288,-0.0174,-0.0124,-0.0124,0.0068,0.0136,0.0254,0.026,0.0301,0.0339,0.0313,0.0404,0.0411,0.0418,0.0455,0.0467,0.0333,0.0333,0.0333,0.0333,0,-0.0614,-0.0558,-0.0536,-0.0454,-0.0401,-0.0338,-0.027,-0.0217,-0.0164,-0.0102,0.0009,0.0086,0.0199,0.0231,0.026,0.0354,0.0359,0.0386,0.0397,0.0423,0.046,0.0473,0.033,0.0331,0.0331,0.0332,0,0,-0.0701,-0.0542,-0.0534,-0.0463,-0.0358,-0.0309,-0.0232,-0.0124,-0.0058,0.0003,0.0114,0.0196,0.0214,0.0273,0.0317,0.0374,0.0436,0.039,0.0395,0.0412,0.0588,0.0493,0.0499,0.048,0.0483,0.0485,0.0583,0,-0.0671,-0.0541,-0.0473,-0.0355,-0.0273,-0.0204,-0.0128,-0.0047,0.0033,0.0137,0.0185,0.0286,0.0236,0.0291,0.0331,0.0433,0.0472,0.0405,0.0573,0.0577,0.048,0.0512,0.0511,0.0591,0.0596,0.0598,0.06,0,-0.0651,-0.0551,-0.0419,-0.0248,-0.0215,-0.0163,-0.0019,0.0056,0.0178,0.0236,0.0302,0.0353,0.0424,0.0392,0.0505,0.0463,0.0508,0.0562,0.0568,0.0508,0.0508,0.0574,0.0615,0.0622,0.062,0.0619,0.0617,0,-0.0675,-0.0509,-0.0389,-0.034,-0.017,-0.0117,-0.0042,0.0081,0.0148,0.0288,0.0345,0.044,0.0483,0.0558,0.0562,0.0576,0.068,0.0736,0.0685,0.0679,0.0724,0.0716,0.0824,0.0824,0.0823,0.0823,0.0823,0,-0.0632,-0.0542,-0.0404,-0.0342,-0.0237,-0.0129,-0.002,0.0066,0.0192,0.025,0.036,0.0391,0.0525,0.057,0.0608,0.0632,0.0702,0.0684,0.0706,0.0702,0.0691,0.0761,0.0752,0.0827,0.0826,0.0825,0.0825,0,-0.0647,-0.0542,-0.0424,-0.0274,-0.0237,-0.0181,-0.0052,0.0024,0.0135,0.0219,0.0251,0.0375,0.0427,0.0508,0.0643,0.0667,0.0734,0.0717,0.0659,0.0671,0.0687,0.0676,0.0771,0.0769,0.0767,0.0765,0.0764,0,-0.062,-0.0553,-0.0431,-0.0384,-0.032,-0.0227,-0.0161,-0.0033,0.0023,0.0151,0.0169,0.0268,0.0286,0.0425,0.0529,0.0622,0.0624,0.0672,0.0708,0.0674,0.0687,0.0678,0.0669,0.076,0.0758,0.0757,0.0757,0,-0.0582,-0.0564,-0.0485,-0.0399,-0.0341,-0.0268,-0.0188,-0.0175,-0.0055,0.0001,0.0028,0.0069,0.0205,0.0326,0.0452,0.0501,0.0672,0.0652,0.0685,0.0733,0.0662,0.0673,0.0667,0.0747,0.0748,0.0749,0.0749,0.075,-0.0594,-0.0555,-0.0471,-0.0394,-0.034,-0.0314,-0.0299,-0.0245,-0.0205,-0.0119,-0.0095,0.0009,0.0163,0.0367,0.0422,0.053,0.057,0.0654,0.066,0.0667,0.0608,0.0533,0.0583,0.0583,0.0583,0.0583,0.0583,0,-0.0587,-0.052,-0.0448,-0.0375,-0.0354,-0.0318,-0.0301,-0.0295,-0.0307,-0.0178,-0.0123,0.0019,0.0182,0.0314,0.0482,0.0569,0.0606,0.0576,0.0642,0.065,0.0658,0.0601,0.0573,0.0573,0.0573,0.0573,0,0,-0.0572,-0.0487,-0.0434,-0.0381,-0.0366,-0.0374,-0.04,-0.039,-0.0306,-0.0228,-0.0102,0.0097,0.0238,0.0359,0.0458,0.0527,0.0568,0.0524,0.0529,0.0606,0.0612,0.0703,0.0623,0,0,0,0,0]}],[{"header":{"parameterUnit":"m.s-1","parameterCategory":2,"la1":30.2991,"la2":30.254,"lo1":-89.0895,"lo2":-89.0444,"dy":0.0017,"dx":0.0017,"nx":28,"ny":28,"refTime":"2023-08-16T21:00:00:Z","depth":"4","parameterNumber":2,"parameterNumberName":"U-component_of_CURRENTS"},"data":[0,0,0,0,0,0,0,0,0,0,0,0,0,0,0,0,0,0,0,0,0,0,0,0,0,0,0,0,0,0,0,0,0,0,0,0,0,0,0,0,0,0,0,0,0,0,0,0,0,0,0,0,0,0,0,0,0,0,-0.1193,-0.1193,0,-0.119,-0.119,-0.119,-0.1232,-0.1233,-0.1235,-0.1236,-0.1246,-0.1244,-0.1243,0,0,0,0,0,0,0,0,0,0,0,0,0,-0.1184,-0.1184,-0.1193,-0.1193,-0.1193,-0.119,-0.119,-0.1189,-0.1231,-0.1233,-0.1235,-0.1237,-0.1246,-0.1245,-0.1243,0,0,0,0,0,0,0,0,0,0,0,0,0,-0.1182,-0.1184,-0.1193,-0.1217,-0.1219,-0.119,-0.119,-0.1189,-0.1231,-0.1233,-0.1235,-0.1238,-0.1246,-0.1245,-0.1243,-0.1187,0,0,-0.1238,-0.1237,0,0,0,0,0,0,0,0,-0.1182,-0.1182,-0.1213,-0.1215,-0.1218,-0.1217,-0.1191,-0.1191,-0.123,-0.1222,-0.1236,-0.1239,-0.1238,-0.1237,-0.1226,-0.1188,-0.1188,-0.1238,-0.1237,-0.1236,-0.1235,0,0,0,0,0,0,0,-0.1182,-0.1182,-0.1188,-0.1213,-0.1216,-0.1211,-0.1213,-0.119,-0.1215,-0.1223,-0.1227,-0.1233,-0.1239,-0.1227,-0.1226,-0.1188,-0.1238,-0.1236,-0.1235,-0.1234,-0.1202,-0.1202,0,0,0,0,0,0,-0.119,-0.1182,-0.1188,-0.1188,-0.121,-0.121,-0.1212,-0.1212,-0.1215,-0.1218,-0.1231,-0.1235,-0.1229,-0.1228,-0.1227,-0.1257,-0.1236,-0.1234,-0.1233,-0.1202,-0.1202,-0.1202,0,0,0,0,0,0,-0.119,-0.1191,-0.1188,-0.1189,-0.1189,-0.1209,-0.1207,-0.1211,-0.1234,-0.1221,-0.1225,-0.1256,-0.1231,-0.1229,-0.1218,-0.1254,-0.1233,-0.1232,-0.1201,-0.1202,-0.1202,-0.1255,0,0,0,0,0,0,-0.119,-0.119,-0.1187,-0.1189,-0.1189,-0.1196,-0.1206,-0.1209,-0.1234,-0.124,-0.1243,-0.1244,-0.1233,-0.122,-0.1216,-0.1252,-0.1231,-0.1201,-0.1201,-0.1202,-0.1253,-0.1257,-0.1261,0,0,0,0,0,-0.1189,-0.1164,-0.1186,-0.1187,-0.1185,-0.1197,-0.1197,-0.1215,-0.1234,-0.1245,-0.1234,-0.1246,-0.1221,-0.1218,-0.1213,-0.1249,-0.1201,-0.1201,-0.1202,-0.1252,-0.1256,-0.1261,0,0,0,0,0,0,-0.1164,-0.1167,-0.1191,-0.1172,-0.1203,-0.1207,-0.121,-0.1229,-0.1228,-0.1242,-0.1229,-0.1228,-0.1231,-0.1223,-0.122,-0.1239,-0.122,-0.122,-0.126,-0.1264,-0.1268,-0.1271,-0.1229,0,0,0,0,0,-0.1157,-0.1139,-0.1168,-0.116,-0.1178,-0.1203,-0.121,-0.1236,-0.1238,-0.1243,-0.1247,-0.1242,-0.1219,-0.1231,-0.1208,-0.1213,-0.1187,-0.1237,-0.1241,-0.1245,-0.1243,-0.1219,-0.1221,-0.1203,-0.1203,-0.1203,0,0,-0.1137,-0.1146,-0.1132,-0.1154,-0.1178,-0.1164,-0.1213,-0.1243,-0.123,-0.124,-0.123,-0.1246,-0.1217,-0.1219,-0.1224,-0.1228,-0.1235,-0.1245,-0.1248,-0.1244,-0.122,-0.1221,-0.1223,-0.1203,-0.1203,-0.1203,0,0,-0.108,-0.1118,-0.1078,-0.1103,-0.1151,-0.1164,-0.1183,-0.122,-0.1245,-0.1244,-0.1242,-0.1291,-0.1255,-0.1266,-0.1254,-0.1265,-0.1241,-0.1264,-0.1306,-0.1283,-0.1284,-0.1285,-0.1254,-0.1252,-0.1285,-0.1285,-0.1286,0,-0.1082,-0.1025,-0.1075,-0.1058,-0.1071,-0.1162,-0.114,-0.1158,-0.1188,-0.1209,-0.1251,-0.1255,-0.1277,-0.1261,-0.1292,-0.128,-0.1243,-0.1294,-0.1289,-0.1289,-0.1289,-0.1257,-0.1254,-0.1288,-0.1288,-0.1287,-0.1287,0,-0.0983,-0.0958,-0.0954,-0.0949,-0.0971,-0.0987,-0.1033,-0.1072,-0.1134,-0.1164,-0.1212,-0.1258,-0.1276,-0.1307,-0.1309,-0.1328,-0.1293,-0.1282,-0.1281,-0.1294,-0.1259,-0.1255,-0.1292,-0.1291,-0.129,-0.1289,0,0,-0.092,-0.0894,-0.0893,-0.0885,-0.093,-0.0947,-0.0945,-0.0981,-0.1,-0.1088,-0.1108,-0.1177,-0.1271,-0.1265,-0.131,-0.1338,-0.1351,-0.1329,-0.1326,-0.1303,-0.1278,-0.1259,-0.1252,-0.1326,-0.1326,-0.1326,-0.1253,0,-0.0842,-0.0804,-0.0792,-0.0749,-0.0736,-0.0816,-0.0807,-0.0863,-0.0938,-0.0982,-0.1096,-0.1132,-0.1224,-0.1278,-0.1319,-0.133,-0.1341,-0.1371,-0.1263,-0.126,-0.1246,-0.1247,-0.1324,-0.125,-0.1249,-0.1248,-0.1248,0,-0.0699,-0.0716,-0.0682,-0.0678,-0.0685,-0.067,-0.0737,-0.0747,-0.0828,-0.0895,-0.0989,-0.1061,-0.115,-0.1221,-0.1264,-0.1268,-0.1281,-0.1298,-0.1294,-0.1253,-0.1233,-0.1232,-0.1239,-0.124,-0.1241,-0.1241,-0.1242,0,-0.0625,-0.0597,-0.0591,-0.0598,-0.0627,-0.0632,-0.0661,-0.0735,-0.0765,-0.0856,-0.0901,-0.0992,-0.1061,-0.1092,-0.1205,-0.121,-0.1221,-0.1216,-0.1196,-0.1194,-0.1209,-0.1209,-0.1209,-0.1209,-0.1209,-0.1209,-0.121,0,-0.0519,-0.0494,-0.0564,-0.057,-0.0565,-0.0604,-0.0619,-0.0662,-0.0726,-0.0768,-0.0874,-0.0925,-0.1034,-0.1081,-0.1145,-0.1175,-0.1171,-0.1195,-0.1175,-0.1233,-0.1236,-0.1206,-0.1207,-0.1207,-0.1207,-0.1208,-0.1208,0,-0.0409,-0.045,-0.0433,-0.0502,-0.0516,-0.053,-0.0579,-0.0599,-0.0672,-0.0721,-0.0751,-0.0856,-0.0938,-0.1025,-0.1081,-0.1099,-0.1126,-0.1129,-0.1186,-0.117,-0.1115,-0.1119,-0.1058,-0.1057,-0.1056,-0.1055,-0.1054,0,-0.0354,-0.0348,-0.0407,-0.0419,-0.0446,-0.0482,-0.0501,-0.0568,-0.0601,-0.0696,-0.0711,-0.0797,-0.0884,-0.0939,-0.1027,-0.1085,-0.1106,-0.1074,-0.1108,-0.1114,-0.11,-0.1106,-0.1111,-0.1053,-0.1052,-0.1052,-0.1052,0,-0.0286,-0.0315,-0.0346,-0.0376,-0.0391,-0.0412,-0.0456,-0.0476,-0.0574,-0.0601,-0.0692,-0.0762,-0.0836,-0.0927,-0.0981,-0.1031,-0.1071,-0.1063,-0.1065,-0.1097,-0.1106,-0.1095,-0.1101,-0.1048,-0.1049,-0.1049,-0.1049,0,-0.0262,-0.0267,-0.0323,-0.0331,-0.0348,-0.0381,-0.0405,-0.047,-0.0513,-0.0625,-0.0647,-0.0766,-0.083,-0.0896,-0.0954,-0.1,-0.0997,-0.0971,-0.0978,-0.0983,-0.1004,-0.1008,-0.0894,0,0,0,0,0,-0.025,-0.0266,-0.0277,-0.0312,-0.0322,-0.0342,-0.0393,-0.0433,-0.0513,-0.0563,-0.0618,-0.0707,-0.0808,-0.0857,-0.0898,-0.092,-0.0995,-0.096,-0.0967,-0.1028,-0.1032,-0.1071,0,0,0,0,0,0,-0.0258,-0.0275,-0.0277,-0.0296,-0.0313,-0.0344,-0.0386,-0.044,-0.0492,-0.0565,-0.0633,-0.0658,-0.0773,-0.0788,-0.0882,-0.0896,-0.0888,-0.1013,-0.1012,-0.1025,-0.1029,-0.1033,-0.1074,0,0,0,0,0]},{"header":{"parameterUnit":"m.s-1","parameterCategory":2,"la1":30.2991,"la2":30.254,"lo1":-89.0895,"lo2":-89.0444,"dy":0.0017,"dx":0.0017,"nx":28,"ny":28,"refTime":"2023-08-16T21:00:00:Z","depth":"4","parameterNumber":3,"parameterNumberName":"V-component_of_CURRENTS"},"data":[0,0,0,0,0,0,0,0,0,0,0,0,0,0,0,0,0,0,0,0,0,0,0,0,0,0,0,0,0,0,0,0,0,0,0,0,0,0,0,0,0,0,0,0,0,0,0,0,0,0,0,0,0,0,0,0,0,0,-0.0392,-0.0391,0,-0.0374,-0.0374,-0.0375,-0.0359,-0.0358,-0.0358,-0.0357,-0.0333,-0.0333,-0.0333,0,0,0,0,0,0,0,0,0,0,0,0,0,-0.0376,-0.0377,-0.0392,-0.0391,-0.0391,-0.0374,-0.0374,-0.0375,-0.0359,-0.0358,-0.0358,-0.0357,-0.0333,-0.0333,-0.0333,0,0,0,0,0,0,0,0,0,0,0,0,0,-0.0376,-0.0377,-0.0392,-0.0378,-0.0377,-0.0374,-0.0374,-0.0375,-0.0359,-0.0358,-0.0358,-0.0357,-0.0333,-0.0333,-0.0333,-0.0347,0,0,-0.0332,-0.0332,0,0,0,0,0,0,0,0,-0.0376,-0.0378,-0.0381,-0.0379,-0.0377,-0.0365,-0.036,-0.0364,-0.0359,-0.037,-0.0357,-0.0357,-0.0342,-0.0341,-0.0344,-0.0345,-0.0344,-0.0332,-0.0332,-0.0332,-0.0332,0,0,0,0,0,0,0,-0.0376,-0.0378,-0.0388,-0.038,-0.0378,-0.0361,-0.0361,-0.0361,-0.0363,-0.0369,-0.0367,-0.0359,-0.0341,-0.0344,-0.0343,-0.0344,-0.0332,-0.0332,-0.0332,-0.0332,-0.0417,-0.0419,0,0,0,0,0,0,-0.0374,-0.0378,-0.0389,-0.0387,-0.0371,-0.0361,-0.0362,-0.0373,-0.0363,-0.036,-0.036,-0.0359,-0.0345,-0.0344,-0.0342,-0.0412,-0.0332,-0.0332,-0.0331,-0.0415,-0.0418,-0.042,0,0,0,0,0,0,-0.0375,-0.0376,-0.0389,-0.0378,-0.0378,-0.0362,-0.0375,-0.0373,-0.0379,-0.0356,-0.0353,-0.0368,-0.0345,-0.0343,-0.036,-0.0408,-0.0332,-0.0331,-0.0412,-0.0416,-0.0419,-0.0515,0,0,0,0,0,0,-0.0375,-0.0377,-0.0397,-0.0379,-0.0379,-0.0404,-0.0375,-0.0373,-0.0373,-0.0372,-0.0362,-0.0358,-0.0344,-0.0361,-0.036,-0.0407,-0.0331,-0.0409,-0.0414,-0.0418,-0.0509,-0.0522,-0.0533,0,0,0,0,0,-0.0374,-0.04,-0.0399,-0.04,-0.0403,-0.0405,-0.0405,-0.0391,-0.0375,-0.0392,-0.0386,-0.0359,-0.039,-0.0363,-0.0361,-0.0408,-0.0407,-0.0412,-0.0418,-0.0504,-0.0519,-0.0533,0,0,0,0,0,0,-0.0412,-0.04,-0.0398,-0.0422,-0.0421,-0.0401,-0.0412,-0.0398,-0.0407,-0.0407,-0.0381,-0.0379,-0.0416,-0.0399,-0.037,-0.0449,-0.0398,-0.0403,-0.0464,-0.0479,-0.049,-0.0488,-0.0331,0,0,0,0,0,-0.0428,-0.0442,-0.0429,-0.0453,-0.0451,-0.0434,-0.0435,-0.0427,-0.0422,-0.0425,-0.0419,-0.0422,-0.0438,-0.0446,-0.0454,-0.049,-0.0418,-0.0523,-0.0535,-0.0545,-0.0545,-0.0473,-0.0477,-0.0438,-0.0438,-0.0438,0,0,-0.0457,-0.0445,-0.046,-0.0461,-0.0457,-0.0472,-0.0434,-0.0443,-0.0465,-0.0422,-0.0458,-0.0459,-0.0456,-0.0503,-0.0519,-0.0494,-0.0519,-0.0552,-0.0561,-0.0554,-0.0479,-0.0482,-0.0485,-0.0442,-0.0441,-0.0441,0,0,-0.0497,-0.0504,-0.0522,-0.0519,-0.051,-0.0509,-0.0513,-0.0506,-0.0513,-0.0543,-0.0528,-0.0554,-0.0572,-0.0587,-0.0594,-0.0674,-0.0581,-0.0686,-0.0745,-0.0677,-0.0678,-0.0679,-0.058,-0.0571,-0.0695,-0.0695,-0.0695,0,-0.0529,-0.0546,-0.0531,-0.0536,-0.0537,-0.0527,-0.0546,-0.0562,-0.0568,-0.0575,-0.0569,-0.0604,-0.0614,-0.0657,-0.0706,-0.0701,-0.0626,-0.069,-0.0688,-0.0687,-0.0686,-0.0585,-0.0573,-0.07,-0.07,-0.0699,-0.0699,0,-0.0567,-0.0586,-0.0594,-0.0603,-0.0611,-0.0627,-0.0633,-0.0655,-0.0662,-0.0669,-0.0707,-0.0721,-0.0732,-0.0763,-0.0767,-0.0788,-0.0724,-0.0704,-0.0643,-0.0695,-0.0586,-0.0572,-0.0708,-0.0706,-0.0704,-0.0703,0,0,-0.0607,-0.0622,-0.0622,-0.0627,-0.0641,-0.0643,-0.0693,-0.0718,-0.0728,-0.0766,-0.0773,-0.0851,-0.084,-0.0849,-0.0854,-0.083,-0.0779,-0.0779,-0.0773,-0.0665,-0.0589,-0.0511,-0.0487,-0.0745,-0.0743,-0.0742,-0.0511,0,-0.0637,-0.0655,-0.0663,-0.0697,-0.0702,-0.0711,-0.0746,-0.077,-0.0788,-0.0801,-0.0827,-0.0844,-0.0876,-0.0879,-0.0869,-0.0796,-0.0749,-0.0841,-0.057,-0.0561,-0.0471,-0.0472,-0.0738,-0.05,-0.0497,-0.0494,-0.0492,0,-0.0648,-0.0658,-0.0691,-0.0709,-0.0713,-0.0745,-0.0765,-0.08,-0.0827,-0.0831,-0.0857,-0.0853,-0.0865,-0.0864,-0.0755,-0.0803,-0.0711,-0.0649,-0.0637,-0.0519,-0.0458,-0.0442,-0.0466,-0.0468,-0.047,-0.0472,-0.0473,0,-0.063,-0.0666,-0.0691,-0.0697,-0.0732,-0.0753,-0.0782,-0.081,-0.0815,-0.0844,-0.0825,-0.0835,-0.0802,-0.0727,-0.063,-0.0674,-0.0452,-0.0481,-0.0315,-0.0306,-0.04,-0.0402,-0.0372,-0.0372,-0.0372,-0.0373,-0.0374,0,-0.0624,-0.0641,-0.0685,-0.0693,-0.0714,-0.0745,-0.0766,-0.0791,-0.0806,-0.0794,-0.0837,-0.0796,-0.0761,-0.0646,-0.0579,-0.0383,-0.0392,-0.0308,-0.0243,-0.0447,-0.0457,-0.0388,-0.0393,-0.0364,-0.0366,-0.0368,-0.0369,0,-0.0587,-0.0623,-0.064,-0.0687,-0.0702,-0.0712,-0.0742,-0.0745,-0.0771,-0.0745,-0.0745,-0.072,-0.0576,-0.0492,-0.0324,-0.0276,-0.0124,-0.0044,-0.0225,-0.0176,-0.0037,-0.0051,0.0151,0.0156,0.016,0.0163,0.0166,0,-0.0572,-0.0582,-0.0619,-0.0626,-0.0652,-0.0675,-0.0684,-0.072,-0.0715,-0.0682,-0.0652,-0.0531,-0.0494,-0.0182,-0.0128,0.0067,0.0069,0.0155,-0.0015,-0.0027,0.0016,-0.0004,-0.0022,0.0172,0.0173,0.0174,0.0175,0,-0.0543,-0.0558,-0.0576,-0.0586,-0.0599,-0.06,-0.0621,-0.0601,-0.0622,-0.0629,-0.0521,-0.042,-0.0236,-0.0114,0.0066,0.0175,0.0083,0.0195,0.0185,0.0026,0.0001,0.0035,0.0012,0.0189,0.0187,0.0186,0.0185,0,-0.052,-0.0519,-0.0545,-0.0549,-0.0555,-0.0539,-0.0547,-0.052,-0.0507,-0.0482,-0.0424,-0.03,-0.0238,-0.0047,0.0105,0.0236,0.0218,0.0205,0.0194,0.018,0.0082,0.0047,0.0326,0,0,0,0,0,-0.0501,-0.0509,-0.0509,-0.052,-0.0518,-0.0525,-0.0513,-0.0521,-0.0519,-0.0419,-0.0425,-0.0262,-0.0057,0.0007,0.016,0.0146,0.0226,0.0324,0.0202,0.0265,0.0249,0.0132,0,0,0,0,0,0,-0.0492,-0.0503,-0.0503,-0.0494,-0.0498,-0.0495,-0.0482,-0.0477,-0.0424,-0.0407,-0.029,-0.0249,-0.0046,-0.0141,0.0152,0.0187,0.0125,0.041,0.0412,0.0274,0.0259,0.0247,0.0121,0,0,0,0,0]}]]